EA5ZF Weather Reports


time (UTC)temp
C
wind
direction
speed
KPH
gust
KPH
rain 1hr
cm
rain 24hr
cm
rain mn
cm
humidity
%
barometer
mb
20260504050521 15 0.0 1.6 0.00 0.15 0.00 82 1013.2
20260504045543 15 0.0 1.6 0.00 0.15 0.00 83 1013.2
20260504044522 15 0.0 0.0 0.00 0.15 0.00 84 1013.1
20260504043523 15 0.0 0.0 0.00 0.15 0.00 82 1013.2
20260504042522 15 0.0 1.6 0.00 0.15 0.00 82 1013.3
20260504041522 15 0.0 0.0 0.00 0.15 0.00 82 1013.4
20260504040522 15 0.0 1.6 0.00 0.15 0.00 81 1013.5
20260504035522 15 0.0 1.6 0.00 0.15 0.00 81 1013.6
20260504034522 16 0.0 1.6 0.00 0.15 0.00 80 1013.8
20260504033522 16 0.0 1.6 0.00 0.15 0.00 81 1014.0
20260504032525 16 0.0 1.6 0.00 0.15 0.00 81 1014.1
20260504031522 16 0.0 1.6 0.00 0.15 0.00 82 1014.2
20260504030523 16 0.0 0.0 0.00 0.15 0.00 82 1014.1
20260504025542 16 0.0 1.6 0.00 0.15 0.00 82 1014.2
20260504024522 16 0.0 0.0 0.00 0.15 0.00 82 1014.2
20260504023522 16 0.0 0.0 0.00 0.15 0.00 83 1014.0
20260504022523 16 0.0 1.6 0.00 0.15 0.00 82 1013.9
20260504021523 16 0.0 0.0 0.00 0.15 0.00 82 1013.9
20260504020525 16 0.0 0.0 0.00 0.15 0.00 83 1013.9
20260504015522 16 0.0 1.6 0.00 0.15 0.00 82 1013.9
20260504014525 16 0.0 0.0 0.00 0.15 0.00 83 1014.0
20260504013546 16 0.0 0.0 0.00 0.15 0.00 83 1014.0
20260504012522 16 0.0 1.6 0.00 0.15 0.00 83 1014.0
20260504011542 16 0.0 0.0 0.00 0.15 0.00 84 1014.0
20260504010529 16 0.0 1.6 0.00 0.15 0.00 84 1014.1
20260504005522 16 0.0 1.6 0.00 0.15 0.00 81 1014.2
20260504004540 16 0.0 3.2 0.00 0.15 0.00 81 1014.3
20260504003522 16 0.0 1.6 0.00 0.15 0.00 82 1014.5
20260504002522 16 0.0 0.0 0.00 0.15 0.00 83 1014.6
20260504001544 16 0.0 1.6 0.00 0.15 0.00 82 1014.7
20260504000542 16 0.0 1.6 0.00 0.15 0.00 83 1014.7
20260503235522 16 0.0 1.6 0.00 0.15 0.15 82 1014.7
20260503234525 16 0.0 0.0 0.00 0.15 0.15 81 1014.9
20260503233543 16 0.0 0.0 0.00 0.15 0.15 80 1015.0
20260503232522 16 0.0 1.6 0.00 0.15 0.15 81 1015.0
20260503231522 16 0.0 0.0 0.00 0.15 0.15 82 1014.9
20260503230522 16 0.0 0.0 0.00 0.15 0.15 82 1014.7
20260503225523 16 0.0 3.2 0.00 0.15 0.15 83 1014.9
20260503224542 16 0.0 0.0 0.00 0.15 0.15 84 1014.9
20260503223522 16 338 1.6 3.2 0.00 0.15 0.15 83 1014.9
20260503222523 16 0.0 0.0 0.00 0.15 0.15 83 1015.1
20260503221522 16 0.0 1.6 0.00 0.15 0.15 83 1015.2
20260503220522 16 0.0 1.6 0.00 0.15 0.15 82 1015.3
20260503215521 16 0.0 1.6 0.00 0.15 0.15 83 1015.4
20260503214522 16 0.0 1.6 0.00 0.15 0.15 83 1015.3
20260503213522 16 0.0 1.6 0.00 0.15 0.15 82 1015.4
20260503212605 16 0.0 1.6 0.00 0.15 0.15 82 1015.4
20260503211522 16 0.0 0.0 0.00 0.15 0.15 82 1015.3
20260503210525 16 0.0 1.6 0.00 0.15 0.15 82 1015.2
20260503205523 16 0.0 1.6 0.00 0.15 0.15 82 1015.1
20260503204522 16 0.0 0.0 0.00 0.15 0.15 82 1015.0
20260503203542 16 0.0 1.6 0.00 0.15 0.15 82 1014.9
20260503202523 16 0.0 0.0 0.00 0.15 0.15 82 1014.7
20260503201602 16 0.0 1.6 0.00 0.15 0.15 81 1014.5
20260503200523 16 338 1.6 3.2 0.00 0.15 0.15 81 1014.5
20260503195522 16 0.0 1.6 0.00 0.15 0.15 81 1014.5
20260503194522 16 0.0 1.6 0.00 0.15 0.15 81 1014.6
20260503193602 17 45 1.6 4.8 0.00 0.15 0.15 80 1014.6
20260503192522 17 0.0 3.2 0.00 0.15 0.15 81 1014.4
20260503191542 17 68 1.6 4.8 0.00 0.15 0.15 81 1014.3
20260503190523 17 45 1.6 6.4 0.00 0.15 0.15 81 1014.1
20260503185546 17 68 1.6 4.8 0.00 0.15 0.15 81 1014.2
20260503184522 17 45 1.6 6.4 0.00 0.15 0.15 80 1014.3
20260503183602 17 68 1.6 4.8 0.00 0.15 0.15 82 1014.1
20260503182522 17 0.0 3.2 0.00 0.15 0.15 82 1014.2
20260503181522 17 113 3.2 6.4 0.00 0.15 0.15 82 1014.1
20260503180521 17 0.0 4.8 0.00 0.15 0.15 82 1014.1
20260503175520 17 0.0 4.8 0.00 0.15 0.15 82 1014.2
20260503174522 17 113 1.6 6.4 0.00 0.15 0.15 82 1014.1
20260503173521 17 135 1.6 8.0 0.00 0.15 0.15 83 1013.9
20260503172521 17 68 1.6 4.8 0.00 0.15 0.15 84 1013.8
20260503171542 17 45 1.6 4.8 0.00 0.15 0.15 84 1013.9
20260503170522 17 113 1.6 8.0 0.00 0.15 0.15 84 1013.9
20260503150521 17 113 1.6 8.0 0.00 0.15 0.15 90 1014.0
20260503130521 17 0.0 3.2 0.00 0.15 0.15 97 1015.3
20260503110541 16 113 1.6 4.8 0.00 0.28 0.15 98 1016.3
20260503081521 15 0.0 1.6 0.05 0.30 0.15 98 1017.2
20260503080526 15 0.0 0.0 0.05 0.28 0.13 98 1017.1
20260503072520 15 0.0 1.6 0.10 0.28 0.13 97 1016.4
20260503071520 15 45 1.6 3.2 0.08 0.25 0.10 97 1016.5
20260503070521 15 0.0 1.6 0.05 0.23 0.08 97 1016.4
20260503054521 16 0.0 0.0 0.00 0.15 0.00 94 1016.2
20260503053521 16 0.0 0.0 0.00 0.15 0.00 93 1016.3
20260503052522 16 0.0 0.0 0.00 0.15 0.00 92 1016.0